Weather observations for the past three days for
Mesquite, Mesquite Metro Airport
Metric (Imperial)
Date Time (cdt) Wind (kph) Vis. (km) Weather Sky Cond. Temperature (ºC) Relative Humidity Wind Chill (°C) Heat Index (°C) Pressure Precipitation (cm)
Air Dwpt 6 hour altimeter (cm) sea level (mb) 1 hr 3 hr 6 hr
Max. Min.
10 01:35 NW 11 16.09 Fair CLR 22.5 18.7 79% 75.84 0.0
10 01:15 SE 11 16.09 Fair CLR 23 18.9 78% 75.74 0.0
10 00:55 SE 13 16.09 Fair CLR 23.2 19 31 23.2 77% 75.74 0.0
10 00:35 SE 11 16.09 Fair CLR 23.3 19 77% 75.77 0.0
10 00:15 SE 13 16.09 Fair CLR 23.2 18.8 76% 75.74 0.0
09 23:55 SE 11 16.09 Fair CLR 23.4 18.8 75% 75.72 0.0
09 23:35 SE 13 16.09 Fair CLR 23.5 18.2 72% 75.72 0.0
09 23:15 SE 9 16.09 Fair CLR 23.5 17.3 68% 75.72 0.0
09 22:55 SE 9 16.09 Fair CLR 23.4 16.8 67% 75.72 0.0
09 22:35 SE 6 16.09 Fair CLR 23.8 16.5 64% 75.72 0.0
09 22:15 SE 7 16.09 Fair CLR 24.5 16.6 62% 26 75.72 0.0
09 21:55 E 7 16.09 Fair CLR 25 16.7 60% 26 75.72 0.0
09 21:35 E 9 16.09 Fair CLR 25.1 16.3 58% 26 75.72 0.0
09 21:15 E 7 16.09 Fair CLR 25 16 57% 26 75.69 0.0
09 20:55 E 6 16.09 Fair CLR 26 16.3 55% 27 75.69 0.0
09 19:50 E 11 16.09 Fair CLR 30 16 43% 30 75.64 0.0
09 18:50 N 11 16.09 Fair CLR 31 16 40% 31 75.62 0.0
09 17:50 N 9 16.09 Fair CLR 32 17 41% 32 75.62 0.0
09 16:50 N 7 16.09 Fair CLR 33 17 38% 33 75.62 0.0
09 14:50 N 11 9.66 Fair with Haze CLR 31 19 49% 32 75.72 0.0
09 13:50 N 11 9.66 Fair with Haze CLR 29 19 55% 30 75.77 0.0
09 12:50 N 13 16.09 Fair CLR 29 19 55% 30 75.79 0.0
09 11:52 N 13 16.09 Fair CLR 28 19 58% 29 75.82 0.0
09 10:50 N 11 16.09 Fair CLR 27 19 62% 28 75.82 0.0
09 09:50 NW 15 16.09 Fair CLR 26 19 65% 27 75.79 0.0
09 08:50 NW 11 16.09 Fair CLR 24 19 74% 25 75.79 0.0
09 07:50 Calm 16.09 Fair CLR 22 21 94% 75.77 0.0
09 06:57 SE 11 16.09 Partly Cloudy SCT021 21 19 88% 75.74 0.0
09 06:35 SE 9 11.27 Mostly Cloudy SCT015 BKN021 20.5 19.2 92% 75.74 0.0
09 06:15 S 7 11.27 Mostly Cloudy BKN011 BKN015 BKN022 21 19.7 92% 75.72 0.0
09 05:55 S 6 16.09 Overcast OVC007 21 19.7 92% 75.72 0.0
09 05:35 NW 7 16.09 Overcast OVC007 20.8 19.7 93% 75.72 0.0
09 05:15 N 6 16.09 Overcast OVC007 20.5 19.4 93% 75.64 0.0
09 04:35 SE 20 G 26 16.09 Partly Cloudy SCT007 SCT012 20 18.9 93% 75.54 0.0
09 04:15 SE 22 G 30 16.09 Fair CLR 20 18.7 92% 75.54 0.0
09 03:55 SE 20 11.27 Partly Cloudy SCT016 19.8 18.2 91% 75.59 0.0
09 03:35 S 11 16.09 Mostly Cloudy SCT016 BKN022 20 18.2 89% 75.69 0.0
09 03:15 S 11 16.09 Overcast OVC022 20.5 18.5 88% 75.74 0.0
09 02:55 S 7 16.09 Overcast OVC020 20.5 18.6 89% 75.79 0.0
09 02:35 Calm 16.09 Overcast OVC018 20.3 18.6 90% 75.82 0.0
09 02:15 SW 6 16.09 Partly Cloudy SCT018 19.5 17.4 88% 75.82 0.0
09 01:55 S 9 16.09 Fair CLR 20 17.4 85% 75.77 0.0
09 01:35 S 9 16.09 Partly Cloudy SCT028 20.7 18.3 86% 75.77 0.0
09 01:15 SW 6 16.09 Mostly Cloudy SCT022 BKN028 20.7 18.4 87% 75.82 0.0
09 00:55 Calm 16.09 Mostly Cloudy BKN022 20.5 18.2 23.4 20.3 87% 75.84 0.0
09 00:35 Calm 16.09 Fair CLR 20.5 17.5 83% 75.84 0.0
09 00:15 S 9 16.09 Fair CLR 20.8 17.8 83% 75.77 0.0
08 23:55 S 13 16.09 Fair CLR 21.1 18 83% 75.74 0.0
08 23:35 S 9 16.09 Mostly Cloudy SCT022 BKN029 BKN095 21.5 18.1 81% 75.77 0.0
08 23:15 N 9 16.09 Overcast SCT022 SCT031 OVC090 21.5 18.2 82% 75.84 0.0
08 22:55 S 9 16.09 Overcast SCT022 OVC080 21.5 18 81% 75.82 0.0
08 22:35 S 13 16.09 Overcast OVC022 21.5 18 81% 75.77 0.0
08 22:15 S 9 16.09 Overcast OVC022 21.5 17.7 79% 75.77 0.0
08 21:55 S 6 16.09 Overcast BKN022 BKN027 OVC080 21.5 17.5 78% 75.74 0.0
08 21:35 S 7 16.09 Mostly Cloudy SCT023 SCT030 BKN080 21.6 17.4 77% 75.72 0.0
08 21:15 SE 6 16.09 Overcast OVC023 21.8 17.5 77% 75.72 0.0
08 20:55 Calm 16.09 Overcast OVC025 22 17.6 76% 75.72 0.0
08 18:50 SE 9 16.09 Overcast OVC030 23 17 69% 75.69 0.0
08 17:51 Calm 16.09 Overcast OVC028 23 16 65% 75.69 0.0
08 16:50 SW 9 16.09 Mostly Cloudy BKN028 23 17 69% 75.92 0.0
08 15:50 S 9 4.83 Light Rain Fog/Mist OVC032 23 16 65% 75.79 0.0
08 14:50 S 15 16.09 Overcast OVC034 26 16 54% 27 75.82 0.0
08 13:51 S 17 16.09 Mostly Cloudy BKN041 BKN090 25 16 57% 26 75.9 0.0
08 11:50 S 11 16.09 Overcast BKN046 OVC065 24 15 57% 25 76.02 0.0
08 10:50 S 11 16.09 Overcast OVC060 22 14 61% 76.07 0.0
08 09:50 SE 15 16.09 Overcast OVC070 21 13 60% 76.1 0.0
08 08:50 SE 15 16.09 Fair CLR 19 14 73% 76.12 0.0
08 07:50 Calm 16.09 Partly Cloudy SCT110 16 14 88% 76.15 0.0
08 06:50 Calm 16.09 Mostly Cloudy BKN110 14 13 94% 76.15 0.0
08 06:35 NE 6 16.09 Overcast OVC110 14.8 13.2 90% 76.15 0.0
08 06:15 NW 6 16.09 Overcast OVC100 14.6 13.3 92% 76.17 0.0
08 05:55 Calm 16.09 Overcast OVC090 13.9 12.3 90% 76.12 0.0
08 05:35 SE 6 16.09 Mostly Cloudy BKN090 13.6 11.6 88% 76.07 0.0
08 05:15 Calm 16.09 Partly Cloudy SCT090 13.8 11.6 87% 76.07 0.0
08 04:55 S 6 16.09 Partly Cloudy SCT085 14.5 12.2 86% 76.1 0.0
08 04:35 Calm 16.09 Mostly Cloudy BKN085 15 13 88% 76.1 0.0
08 04:15 SE 11 16.09 Mostly Cloudy BKN085 15 13 88% 76.07 0.0
08 03:55 E 7 16.09 Mostly Cloudy BKN085 BKN110 15.2 13.1 87% 76.1 0.0
08 03:35 Calm 16.09 Overcast BKN085 OVC110 15.3 13.1 87% 76.17 0.0
08 03:15 Calm 16.09 Overcast OVC095 15.5 13.3 87% 76.2 0.0
08 02:55 Calm 16.09 Overcast OVC095 15.3 13 86% 76.17 0.0
08 02:35 Calm 16.09 Overcast OVC095 15.3 13 86% 76.15 0.0
08 02:15 Calm 16.09 Overcast OVC085 15.2 12.5 84% 76.15 0.0
08 01:55 Calm 16.09 Overcast OVC085 14.9 12 83% 76.17 0.0
08 01:35 Calm 16.09 Mostly Cloudy BKN085 14.5 11.5 82% 76.2 0.0
08 01:15 S 6 16.09 Partly Cloudy SCT085 14.5 11.2 81% 76.2 0.0
08 00:55 Calm 16.09 Fair CLR 14.5 11.3 19.6 14.5 81% 76.2 0.0
08 00:35 Calm 16.09 Fair CLR 15 11.8 81% 76.2 0.0
08 00:15 S 6 16.09 Fair CLR 15.3 11.7 79% 76.2 0.0
07 23:55 Calm 16.09 Fair CLR 15.5 11.5 77% 76.2 0.0
07 23:35 Calm 16.09 Fair CLR 15.5 11.4 77% 76.2 0.0
07 23:15 Calm 16.09 Fair CLR 15.5 11.7 78% 76.2 0.0
07 22:55 Calm 16.09 Fair CLR 15.8 12.1 79% 76.17 0.0
07 22:35 E 6 16.09 Fair CLR 16.1 12 77% 76.17 0.0
07 22:15 Calm 16.09 Fair CLR 16 11.7 76% 76.17 0.0
07 21:55 Calm 16.09 Fair CLR 16 11 72% 76.17 0.0
07 21:35 Calm 16.09 Fair CLR 16.1 10.9 71% 76.17 0.0
07 21:15 Calm 16.09 Fair CLR 16.5 10.5 68% 76.17 0.0
07 20:55 Calm 16.09 Fair CLR 16.8 11.2 70% 76.12 0.0
07 19:50 E 7 16.09 Fair CLR 19 12 64% 76.15 0.0
07 18:53 Calm 16.09 Fair CLR 19 12 64% 76.15 0.0
07 17:52 S 11 16.09 Fair CLR 21 12 57% 76.17 0.0
07 16:50 S 11 16.09 Fair CLR 21 12 57% 76.2 0.0
07 15:53 E 7 16.09 Fair CLR 23 11 47% 76.23 0.0
07 14:56 Calm 16.09 Fair CLR 23 11 47% 76.28 0.0
07 14:50 Calm 16.09 Fair CLR 23 11 47% 76.28 0.0
07 13:52 NW 11 16.09 Fair CLR 21 11 53% 76.33 0.0
07 12:50 N 15 16.09 Fair CLR 21 10 50% 76.38 0.0
07 11:50 N 11 16.09 Fair CLR 20 10 53% 76.45 0.0
07 10:50 N 15 16.09 Fair CLR 18 11 64% 76.48 0.0
07 08:50 NW 7 16.09 Fair CLR 16 11 72% 76.56 0.0
07 07:50 Calm 16.09 Fair CLR 12 11 94% 76.56 0.0
07 06:50 NW 7 16.09 Fair CLR 11 9 88% 76.5 0.0
07 06:35 N 6 16.09 Fair CLR 10.6 9.4 92% 76.48 0.0
07 06:15 Calm 16.09 Fair CLR 10.9 9.4 91% 76.48 0.0
07 05:55 Calm 16.09 Fair CLR 10.8 9.6 92% 76.45 0.0
07 05:35 Calm 16.09 Fair CLR 10.9 9.5 91% 76.38 0.0
07 05:15 N 7 16.09 Fair CLR 11 9.5 91% 76.35 0.0
07 04:55 Calm 16.09 Fair CLR 11.1 9.6 91% 76.38 0.0
07 04:35 Calm 16.09 Fair CLR 11.3 9.8 91% 76.38 0.0
07 04:15 N 6 16.09 Fair CLR 11.6 10.1 91% 76.35 0.0
07 03:55 N 7 16.09 Partly Cloudy SCT035 11.8 10.3 91% 76.35 0.0
07 03:35 N 7 16.09 Fair CLR 12 10.6 91% 76.33 0.0
07 03:15 N 9 16.09 Fair CLR 12 10.8 92% 76.33 0.0
07 02:55 N 6 16.09 Fair CLR 12 10.8 92% 76.3 0.0
07 02:35 N 7 16.09 Fair CLR 12.1 10.8 92% 76.3 0.0
07 02:15 N 7 16.09 Fair CLR 12.5 11 91% 76.3 0.0
Date Time (cdt) Wind (kph) Vis. (km) Weather Sky Cond. Air Dwpt Max. Min. Relative Humidity Wind Chill (°C) Heat Index (°C) altimeter (cm) sea level (mb) 1 hr 3 hr 6 hr
6 hour
Temperature (ºC) Pressure Precipitation (cm)